Wind_Speed
28 28 27 26 26 26 26 26 25 24 24 23 22 21 21 22 21 21 20 19 19 20 19 18 17 18 20 19 17 17 17 13 12 15 15 13 12 13 11 10 11 11 9 8 8 7 6 5 5 6 7 9 10 10 9 7 7 7 8 10 10 9 9 8 8 10 12 11 10 10 10 13 14 12 12 12 10 10 10 10 12 14 16 17 17
29 28 27 26 26 26 26 26 25 24 24 23 22 21 22 22 21 21 20 18 18 20 20 19 17 17 20 20 17 17 18 15 12 14 14 13 12 13 12 9 10 11 10 9 8 8 8 7 7 6 6 8 9 8 7 7 7 7 7 7 7 6 6 7 6 7 9 9 8 9 11 13 14 13 13 14 15 15 14 14 16 17 17 16 14
29 29 28 27 26 26 25 26 25 24 23 23 22 21 21 22 21 20 21 20 19 19 20 20 20 20 20 20 19 18 18 16 15 15 15 13 12 13 13 11 9 11 11 10 9 9 9 9 8 7 7 7 8 8 9 9 8 8 7 6 5 5 4 4 4 4 6 7 9 11 12 13 14 14 14 16 17 16 16 16 16 15 13 12 12
29 29 28 28 27 26 26 26 25 25 24 24 23 21 21 22 21 21 22 21 20 20 19 20 21 20 19 20 20 20 20 18 17 16 16 15 12 11 13 13 12 11 12 11 9 8 9 8 8 7 8 9 9 9 9 8 8 9 9 6 4 4 2 3 4 4 5 7 10 12 12 13 14 15 16 17 17 15 13 12 13 13 12 13 16
29 29 29 28 27 27 26 26 26 26 25 24 24 23 22 22 22 21 22 22 22 21 20 20 21 20 18 19 20 21 21 20 19 18 17 16 15 12 11 12 12 11 11 11 10 9 9 10 9 8 9 10 10 10 9 8 7 9 8 6 4 4 3 3 4 4 6 8 10 11 12 12 14 14 15 17 17 15 11 10 11 15 17 18 19
30 29 29 28 28 28 27 27 27 27 25 23 22 23 24 23 23 22 21 21 23 23 21 21 21 21 20 18 18 20 20 19 20 20 17 15 15 14 12 12 12 12 11 11 10 10 10 11 10 10 10 12 12 11 10 9 8 8 8 7 6 5 5 4 5 5 7 8 10 12 13 13 14 14 14 16 16 12 11 13 15 18 21 20 20
32 31 30 30 29 29 29 29 28 27 27 24 21 23 24 23 23 22 20 19 21 23 23 22 22 22 21 20 19 19 18 17 18 19 18 17 15 15 15 14 13 12 11 11 11 11 11 11 11 10 10 11 12 12 12 11 9 8 8 8 7 7 6 5 5 6 7 8 10 12 13 13 14 14 15 15 13 10 13 17 19 20 21 20 21
34 33 33 32 32 31 30 30 28 27 27 25 23 23 23 23 22 22 21 20 20 21 23 23 23 22 21 22 21 19 17 17 17 17 17 17 16 15 15 14 13 13 12 12 12 12 13 13 12 11 10 11 12 12 12 12 10 8 8 9 9 8 7 6 6 7 8 9 10 12 13 13 14 15 16 15 13 12 13 15 17 20 21 20 21
36 36 35 35 35 33 31 30 28 26 25 25 24 23 23 23 22 22 23 23 21 21 21 22 23 22 20 21 22 21 19 18 18 17 16 16 17 15 14 13 13 12 12 12 12 11 11 11 10 9 9 10 11 10 10 10 11 11 10 10 10 8 7 7 7 7 8 10 11 12 12 14 15 15 15 13 11 11 13 15 17 19 20 22 22
36 37 37 37 36 34 32 30 28 26 25 26 24 24 24 24 23 24 24 24 23 22 21 21 22 21 20 22 23 21 19 17 17 17 17 16 16 16 14 13 12 11 11 11 10 10 10 9 9 8 8 9 10 10 10 10 11 12 11 10 10 9 8 7 6 6 8 9 11 11 12 14 15 14 13 12 10 11 14 15 17 18 20 21 20
37 37 38 37 36 35 33 30 29 28 27 27 26 26 25 24 25 27 26 25 25 24 23 22 22 21 20 21 22 21 20 19 18 18 18 17 16 16 15 14 12 10 10 10 10 9 9 8 8 8 9 10 11 11 11 10 11 12 11 11 10 9 8 7 5 6 7 9 10 10 11 14 14 13 12 12 11 12 13 14 15 16 17 16 15
36 35 35 34 34 34 33 31 31 30 27 25 25 26 27 25 26 28 27 27 27 26 24 23 23 22 21 21 22 23 22 21 20 19 19 18 17 17 16 14 12 11 12 12 10 8 7 7 8 9 8 9 9 9 9 9 10 11 11 10 9 8 7 6 6 6 7 8 9 9 9 11 11 11 11 11 12 12 13 12 12 12 12 12 13
33 31 30 31 32 32 32 30 30 29 26 22 20 22 24 24 24 27 29 28 28 27 25 23 23 23 22 22 23 23 23 23 21 19 19 18 18 17 16 14 13 12 12 12 9 7 6 7 10 11 9 8 8 7 7 6 7 8 7 7 6 5 5 5 5 5 5 5 5 4 4 6 8 8 8 10 12 12 12 11 10 9 9 11 12
28 30 29 28 29 30 30 29 28 27 25 22 18 17 18 20 22 25 27 27 26 26 25 24 23 22 22 22 22 23 23 23 21 20 19 18 17 17 16 15 14 12 11 10 9 7 7 8 10 11 10 9 8 7 7 7 7 6 5 5 4 3 3 2 3 3 2 1 2 2 3 4 6 7 8 9 9 9 9 8 7 7 8 8 9
24 27 27 26 26 27 27 27 26 25 23 21 18 16 15 16 19 21 23 25 25 25 24 22 22 22 22 22 22 22 22 22 21 21 20 19 17 16 15 15 15 14 12 11 10 9 9 10 11 10 10 9 8 7 7 6 6 6 5 5 4 4 4 4 3 2 2 2 3 4 5 5 6 6 6 6 6 6 6 5 6 6 7 8 9
22 20 18 17 17 19 20 21 23 24 22 20 17 15 15 15 15 16 18 21 22 21 20 19 20 21 22 22 22 21 22 22 21 21 20 19 18 15 14 15 17 16 14 12 11 10 11 11 10 10 9 9 8 7 6 5 5 4 5 5 5 5 5 4 3 2 3 4 4 5 5 5 4 4 3 3 5 5 4 5 7 8 10 11 12
16 13 12 10 10 11 12 12 14 16 16 14 13 13 13 14 14 14 16 18 19 20 19 18 17 18 19 19 20 20 20 20 20 19 19 18 16 15 16 17 17 16 15 13 13 12 11 11 10 10 9 9 8 7 6 5 4 4 4 5 6 7 6 4 3 4 4 3 2 2 1 2 2 1 3 5 7 6 4 6 9 10 12 12 12
4 5 8 10 10 11 13 13 13 13 9 6 9 12 14 14 14 14 16 17 17 17 18 17 17 17 17 18 18 17 17 17 17 17 16 15 14 16 18 19 18 17 16 15 14 13 13 12 10 9 8 7 6 5 5 5 5 6 6 7 8 7 5 4 3 3 2 2 3 4 5 5 4 5 7 8 9 7 6 8 9 10 11 10 10
5 2 6 7 7 10 14 15 14 10 6 7 12 17 20 20 20 19 18 18 17 17 18 18 17 17 17 17 16 16 15 15 15 15 15 14 15 18 20 20 20 19 18 16 14 13 12 10 9 7 6 5 4 4 4 5 6 6 7 8 8 6 3 3 3 4 5 7 8 9 10 10 9 8 8 9 9 10 10 10 9 10 10 11 12
5 2 6 9 8 8 10 11 11 8 8 12 19 23 23 21 21 20 18 18 19 19 19 19 18 17 16 16 15 15 14 15 15 16 16 16 17 19 21 22 22 21 20 18 15 13 11 9 8 7 6 6 5 5 5 5 6 6 7 8 8 7 6 6 6 7 8 10 12 12 12 10 8 8 8 9 10 11 12 12 12 11 11 11 13
4 4 7 10 9 6 6 7 7 6 8 12 17 22 23 20 20 21 19 19 20 21 20 19 19 17 15 15 14 13 12 13 13 14 16 17 19 21 22 23 23 22 21 19 16 15 12 9 8 8 7 7 7 6 6 5 5 6 8 9 8 8 8 8 8 8 9 11 11 11 11 9 8 9 9 10 12 13 13 13 13 12 11 12 13
8 7 7 6 5 2 2 2 3 5 9 11 14 21 25 22 21 22 22 21 22 23 22 20 19 18 16 14 12 12 11 9 10 12 14 16 18 19 21 22 23 23 22 19 17 16 13 11 9 9 9 8 7 7 8 7 7 8 8 8 8 9 9 9 8 8 9 10 10 11 12 11 11 11 11 12 13 13 13 13 12 11 12 14 13
11 11 11 7 3 4 9 9 8 9 10 12 13 15 18 20 21 22 23 23 23 24 23 22 21 20 18 15 13 12 11 9 9 10 11 13 14 15 16 18 20 22 22 20 17 15 13 11 10 10 10 9 10 11 11 10 9 9 9 10 9 8 8 7 7 8 9 10 11 13 14 14 13 13 13 13 13 12 12 12 12 12 13 14 14
16 17 17 15 12 12 15 16 15 13 11 11 10 7 6 9 14 20 24 25 25 26 24 22 22 22 20 18 15 13 11 11 10 9 8 9 10 10 11 15 17 19 20 19 17 14 12 10 9 10 12 12 13 12 10 9 11 12 12 11 9 7 7 7 8 8 10 11 13 15 15 14 14 14 13 12 11 10 11 12 12 11 12 13 13
18 19 19 18 17 16 17 18 18 16 14 14 13 10 9 10 11 11 14 17 20 22 23 22 22 22 21 19 16 14 12 12 10 8 8 8 7 6 8 12 14 15 16 16 15 14 13 9 6 9 14 14 12 10 9 10 13 14 13 11 10 9 9 9 9 10 12 13 14 14 14 14 13 13 11 10 9 10 11 12 12 12 11 10 10
20 20 20 18 17 17 17 16 16 16 15 15 15 14 13 14 15 13 13 15 16 17 18 18 19 20 19 17 15 14 13 11 9 7 5 5 5 4 4 5 6 8 11 13 13 14 13 9 7 10 13 12 10 12 14 17 17 16 14 13 12 12 11 11 11 12 13 13 13 13 13 12 10 10 11 11 12 14 14 14 14 14 14 13 12
21 20 20 19 18 17 18 16 15 16 16 16 16 16 14 14 14 14 14 15 14 13 12 13 14 15 15 16 16 15 13 11 9 7 5 3 2 2 2 3 4 4 8 12 12 10 9 8 8 9 10 11 14 18 21 20 19 18 16 15 14 14 13 12 12 13 13 13 13 13 11 10 10 11 13 14 15 16 15 15 16 17 16 16 17
20 19 19 19 18 18 18 18 17 17 17 16 16 16 14 13 13 14 13 13 13 12 11 12 12 11 13 15 16 15 13 11 9 8 6 4 3 4 4 4 5 7 9 10 10 10 11 12 13 13 15 18 21 22 22 21 19 19 18 16 15 14 13 12 12 13 12 12 12 12 10 11 12 13 13 15 17 16 15 15 16 17 17 18 20
19 18 17 17 16 16 16 17 17 18 18 16 16 17 15 13 13 13 12 11 12 12 13 14 13 12 12 12 12 12 11 10 8 7 6 6 6 6 6 6 7 9 10 12 14 17 20 21 21 21 22 23 23 22 21 20 19 19 17 16 14 13 12 12 12 12 12 11 12 12 11 12 13 13 13 15 16 15 15 15 16 17 18 19 20
17 17 16 16 15 14 14 15 16 16 17 17 17 18 16 14 13 12 11 10 9 9 11 13 14 13 11 10 10 10 9 8 7 6 6 7 8 8 8 8 9 12 15 18 21 22 23 23 23 22 23 23 23 22 21 20 20 19 17 16 14 13 13 13 12 12 12 12 12 12 11 12 13 13 13 14 14 14 15 16 17 18 19 19 19
18 18 17 17 16 15 14 14 15 15 16 16 16 17 17 16 14 13 12 11 9 7 7 9 12 11 9 9 10 9 8 7 6 6 7 9 9 9 10 11 13 16 19 22 23 23 23 23 23 21 21 22 22 21 20 20 19 18 17 17 16 14 13 12 11 11 12 13 14 13 13 13 14 13 13 13 13 14 15 16 17 19 19 19 18
19 19 18 17 17 16 15 14 14 14 15 15 15 16 17 17 15 14 12 12 12 11 10 8 8 8 7 7 8 8 7 7 6 6 7 9 10 11 11 13 16 19 20 21 22 24 24 24 23 21 21 21 20 19 19 18 17 16 16 16 16 14 13 12 11 11 13 14 15 15 15 15 15 14 13 13 14 15 17 18 19 19 19 19 18
18 19 19 18 17 16 15 14 13 13 13 13 13 14 14 15 15 14 12 11 11 11 12 11 10 9 8 7 6 6 6 6 6 7 8 10 12 13 14 15 16 16 16 20 23 24 23 23 23 22 21 21 19 18 17 16 15 15 15 14 14 12 11 10 10 12 14 15 15 16 16 15 14 14 14 14 15 16 17 19 20 19 19 19 18
18 20 21 20 18 17 16 15 14 13 13 12 12 12 12 12 13 14 13 12 11 11 11 11 10 9 8 7 7 7 7 7 8 8 9 11 14 15 16 16 16 14 15 19 23 23 22 22 22 21 20 19 18 17 16 14 13 13 13 13 13 13 12 11 12 14 15 15 16 16 16 16 15 15 15 16 17 17 18 19 20 20 19 19 18
16 18 20 20 19 18 18 16 15 14 13 12 12 11 12 12 12 12 12 12 13 12 11 11 9 8 8 8 9 9 8 7 8 10 9 10 14 15 15 16 17 17 18 20 21 21 21 22 21 20 19 18 17 16 15 14 13 13 13 13 14 14 13 13 14 15 14 15 16 16 16 16 16 17 17 18 19 20 19 19 20 19 19 19 18
14 16 18 19 19 18 17 16 14 13 13 12 12 12 12 12 12 12 12 13 13 13 12 11 9 8 7 6 7 8 8 8 10 10 9 10 13 14 15 17 19 20 20 20 20 21 20 20 19 19 18 17 17 16 15 15 15 14 14 14 14 14 15 15 16 15 14 15 16 16 16 17 17 18 18 18 19 19 18 18 19 18 17 17 17
11 15 18 19 19 18 17 16 15 14 14 13 13 12 11 11 11 12 13 14 14 13 12 11 11 10 8 7 5 5 6 10 11 10 9 12 15 15 16 19 21 21 22 21 21 21 20 18 17 17 17 16 16 16 15 15 16 15 15 15 15 15 16 16 15 15 15 15 16 16 16 17 18 18 18 18 17 17 17 17 18 17 17 17 17
8 12 15 17 18 18 17 16 15 15 15 15 15 14 12 10 10 11 14 16 16 15 13 13 13 13 11 9 8 6 7 9 10 10 13 17 19 19 20 21 21 22 22 21 19 19 19 18 16 16 16 15 15 14 14 14 14 14 14 14 15 15 14 14 14 14 15 15 16 16 17 17 17 17 17 16 16 17 17 17 17 18 18 18 19
6 8 10 13 14 16 15 14 15 15 14 13 15 15 13 10 8 9 14 18 19 17 15 15 15 15 13 10 9 7 7 8 11 15 19 22 21 22 22 22 22 22 21 20 19 18 18 17 15 15 14 13 12 13 13 13 13 13 12 12 12 13 13 13 14 14 15 16 16 16 16 16 15 14 14 14 14 15 15 15 16 16 17 18 19
5 5 7 8 10 11 12 12 12 13 12 11 11 11 11 9 7 8 13 19 22 20 17 16 16 15 13 11 9 7 7 10 15 19 22 23 23 23 23 22 22 22 21 19 18 17 17 16 14 13 12 11 11 11 11 11 11 11 10 10 11 12 12 12 13 14 15 15 16 15 15 14 12 12 12 12 13 14 14 14 14 14 15 16 17
6 6 7 8 9 10 10 11 11 12 11 11 10 9 11 11 9 10 15 21 24 23 20 17 15 14 11 9 8 8 11 16 20 21 22 23 23 22 22 21 21 20 19 18 16 15 15 14 12 11 11 10 9 9 9 9 9 9 9 10 11 11 11 12 12 13 14 14 14 14 13 12 12 12 12 11 12 13 12 12 13 13 14 14 15
8 8 9 9 10 11 11 10 10 10 11 11 10 11 12 12 10 11 16 22 24 23 22 20 18 15 11 9 11 14 17 21 22 21 21 22 22 21 21 20 19 18 16 15 14 13 12 11 10 9 9 8 7 7 7 7 7 7 8 9 10 10 11 12 12 13 14 13 13 13 12 12 12 11 10 10 11 12 12 11 12 12 12 13 15
11 10 10 10 11 12 12 11 11 11 11 11 11 11 12 13 11 13 17 21 23 23 22 21 18 15 12 10 12 18 21 23 22 22 22 22 21 20 20 19 17 16 14 13 11 10 9 9 9 8 8 8 7 7 7 6 6 6 7 8 9 9 10 11 12 13 13 13 12 12 13 13 12 10 8 8 10 11 10 10 11 11 11 12 13
13 12 11 11 12 12 13 13 12 12 12 11 10 10 12 14 15 16 19 22 23 23 22 20 17 15 13 11 14 19 23 24 24 24 23 22 20 19 18 17 15 14 12 11 10 8 7 8 8 8 8 8 7 7 7 7 6 7 8 8 8 9 10 11 12 12 12 12 12 13 15 15 12 9 7 8 9 9 9 9 9 10 10 10 11
14 13 13 13 12 13 13 13 13 12 11 10 10 10 13 17 19 19 21 24 24 22 21 19 17 18 19 18 19 22 23 24 23 23 21 20 19 17 15 13 12 10 9 9 8 7 6 7 7 7 8 8 7 7 7 7 7 7 8 8 9 9 10 10 11 11 11 12 14 15 16 16 13 9 7 8 8 8 8 8 9 9 9 10 11
14 13 13 14 13 12 12 13 13 10 9 9 11 13 16 19 19 19 21 23 23 23 22 21 20 21 23 22 22 22 22 21 21 20 18 17 16 14 12 10 8 8 8 8 7 6 7 7 7 7 7 8 8 8 7 7 7 7 8 8 9 9 10 10 10 11 12 14 16 16 16 15 12 8 7 7 7 7 7 8 8 9 9 10 12
15 12 12 13 13 12 12 13 12 10 9 11 15 17 16 17 17 16 18 21 23 24 24 23 23 24 24 22 21 20 20 19 17 16 14 13 12 10 9 8 8 9 9 9 9 8 8 8 7 7 7 7 7 7 7 6 6 6 7 8 9 9 9 10 11 13 15 16 17 16 14 12 11 8 6 6 7 7 8 8 8 9 10 11 13
16 13 11 11 11 12 12 11 11 10 10 14 16 15 14 15 15 13 14 19 24 26 25 24 24 25 24 23 21 20 19 17 16 14 13 11 9 9 9 9 10 11 11 10 10 9 8 8 7 7 7 6 6 6 6 6 6 6 7 8 9 9 10 11 13 15 17 17 15 13 10 10 10 8 6 6 7 8 8 8 9 10 11 12 14
17 15 13 11 11 12 12 10 10 12 15 17 16 14 14 14 13 12 14 19 25 26 25 25 25 25 24 23 21 20 18 17 16 14 12 11 10 10 11 11 11 11 10 9 9 8 9 9 9 8 7 6 6 6 6 5 5 6 7 8 9 9 11 13 15 17 16 15 14 13 12 11 10 8 6 7 7 8 8 9 11 13 13 14 16
17 17 15 14 14 15 14 12 13 17 18 17 16 16 15 14 15 17 19 22 25 26 26 26 26 24 23 22 21 19 18 17 15 13 13 12 12 12 13 12 11 10 9 8 7 7 8 9 8 8 8 7 6 6 6 5 6 7 7 8 9 10 12 15 16 16 15 14 15 16 16 15 11 7 6 6 7 8 9 11 14 15 16 16 18
18 17 16 14 13 14 15 15 17 17 16 16 17 16 14 15 18 19 20 21 24 26 26 26 25 24 22 21 20 18 17 16 15 14 14 14 14 14 13 11 10 9 8 7 7 7 6 5 5 5 5 6 5 5 4 5 6 6 6 7 9 11 14 15 15 14 13 14 15 17 17 16 13 9 6 6 8 9 11 13 15 16 17 18 19
Wind_Direction
197 199 201 204 206 208 208 207 207 207 207 206 208 212 213 214 217 219 222 225 221 218 220 219 218 218 215 213 217 223 227 226 217 214 218 226 228 224 226 237 237 235 243 254 248 249 270 282 273 272 282 290 289 285 285 280 276 293 320 322 305 282 273 268 254 268 292 305 306 311 328 332 332 341 342 335 335 335 331 330 335 339 342 344 347
197 199 200 203 207 209 210 210 208 206 206 207 211 215 216 215 217 219 220 221 220 219 218 218 217 213 210 214 220 224 226 223 216 216 220 226 229 225 228 241 244 237 241 251 248 245 257 267 263 258 272 288 287 281 285 285 283 299 316 324 325 310 281 276 266 271 294 307 313 322 332 333 332 337 340 336 335 333 332 336 340 342 344 347 354
198 199 200 202 206 208 209 210 209 208 208 210 214 217 217 213 215 218 217 218 220 220 219 220 221 218 217 220 223 223 224 224 222 221 224 229 230 227 230 240 244 239 240 251 255 250 254 262 261 254 259 277 281 282 295 294 280 283 294 302 321 318 286 272 277 284 295 306 323 331 334 335 331 333 339 341 342 340 336 339 344 350 1 6 4
198 199 200 202 204 206 208 209 210 210 210 212 215 217 215 213 214 217 218 220 221 220 221 220 219 221 225 225 224 222 222 223 222 220 224 230 231 231 235 238 240 245 247 251 255 253 254 258 258 256 258 266 272 279 291 289 270 270 281 283 291 301 284 268 288 305 308 313 324 329 333 335 331 332 341 348 352 354 353 354 356 0 5 360 351
198 199 201 203 203 204 207 208 209 211 212 215 218 218 217 216 218 221 222 222 220 218 220 220 218 220 226 226 222 220 222 226 225 221 225 229 229 235 241 238 238 244 246 244 246 251 257 262 263 261 261 262 266 272 276 276 272 272 273 273 277 285 281 279 297 316 321 321 323 325 329 332 329 330 342 350 353 355 359 360 356 352 348 344 342
197 199 201 202 202 204 207 209 210 211 212 216 218 216 216 217 219 222 224 223 219 217 218 219 219 221 224 225 224 224 228 230 226 223 225 225 225 232 240 240 240 243 242 239 242 250 257 262 266 266 264 262 262 264 265 266 273 274 268 268 273 277 282 289 298 308 314 316 318 320 323 327 328 329 339 350 352 354 354 346 342 343 343 341 341
195 197 199 200 202 205 207 208 209 210 211 213 215 214 215 217 217 217 219 220 218 217 219 219 218 221 223 224 227 229 228 224 221 223 227 227 228 233 236 237 237 239 243 242 243 249 255 259 266 270 268 265 264 265 263 259 264 270 265 263 267 271 275 279 285 294 302 306 309 314 317 320 324 328 336 345 348 352 355 347 340 339 340 341 342
194 196 197 199 203 206 208 208 207 209 210 211 213 216 217 217 216 213 215 218 217 217 220 220 218 219 222 222 224 226 225 224 226 227 228 228 231 234 233 232 234 237 242 246 248 251 253 257 263 266 269 270 267 264 257 251 253 257 254 253 256 260 262 265 272 282 291 298 302 307 311 312 318 326 334 341 344 345 348 346 339 336 337 338 340
193 194 196 199 202 206 207 206 206 208 209 210 213 218 219 219 218 216 215 217 219 220 219 217 216 218 220 220 221 224 227 230 232 229 226 226 230 233 232 231 235 240 245 249 251 252 253 258 260 261 268 272 269 262 252 249 252 254 254 250 247 250 258 262 270 280 288 295 299 305 308 308 313 323 331 337 340 335 335 335 334 334 334 334 336
192 194 196 199 201 203 202 202 203 206 209 210 213 218 221 220 218 216 216 217 219 220 218 214 214 216 217 217 219 221 223 225 227 226 227 229 231 233 234 234 238 244 249 249 250 253 258 260 255 252 256 256 254 254 252 253 256 258 256 245 240 252 264 266 275 287 293 297 301 306 307 305 310 321 327 327 324 324 329 333 333 334 335 334 335
193 194 197 199 200 199 200 202 203 204 210 213 214 217 220 219 217 216 217 218 219 219 219 217 216 215 214 215 218 220 221 221 222 224 227 229 230 232 234 239 244 249 252 252 254 260 267 264 251 245 246 245 244 246 246 246 247 248 246 241 247 262 266 264 275 287 292 296 298 301 301 301 307 314 315 313 314 320 328 332 333 337 340 338 332
192 193 196 197 197 198 200 203 204 205 209 213 215 217 220 220 219 218 219 219 219 221 222 222 220 216 213 213 216 219 222 222 222 225 227 228 230 232 234 238 239 243 254 261 260 262 268 260 236 227 231 237 241 242 240 237 236 235 235 240 251 259 255 256 265 270 276 281 284 290 293 297 306 310 307 305 310 318 325 329 336 341 342 338 326
187 188 191 193 195 197 197 198 201 203 205 208 211 216 220 221 221 221 220 218 218 220 221 221 220 217 213 213 215 218 220 222 224 226 227 228 232 232 230 230 228 231 247 256 253 254 257 235 218 216 221 228 231 233 230 221 219 221 224 231 236 237 242 251 258 262 269 272 277 289 296 304 313 314 308 307 311 321 326 332 340 341 339 337 328
180 183 188 189 191 193 192 193 195 197 200 203 205 208 214 218 218 219 219 217 216 217 218 220 220 218 217 216 216 217 217 220 224 227 228 230 233 231 227 228 228 224 228 235 237 242 237 219 214 215 218 224 227 226 223 218 215 212 208 202 194 195 210 212 217 236 241 239 274 309 308 311 312 307 307 311 317 329 334 338 347 346 345 344 335
176 180 183 184 186 188 190 192 195 198 199 199 199 198 198 203 206 209 212 213 215 216 217 220 219 218 218 217 215 214 216 219 222 226 230 233 234 232 227 226 224 219 219 226 231 231 221 214 217 218 217 221 225 224 223 221 218 210 196 179 164 168 176 170 175 196 216 253 288 294 289 289 288 291 308 322 339 356 359 358 4 4 2 358 353
178 177 173 175 183 187 191 197 200 202 202 198 194 188 185 189 193 195 197 200 203 205 206 207 208 209 210 210 211 211 214 219 221 223 229 234 234 229 218 211 211 211 215 221 221 217 214 213 216 217 217 218 218 219 223 222 222 216 193 175 176 189 193 193 205 247 280 289 284 274 271 274 275 291 325 355 8 15 19 20 22 19 15 12 6
180 178 170 177 196 203 210 219 219 218 214 202 191 189 193 196 194 195 193 189 189 191 191 191 193 197 199 201 205 208 211 215 219 222 227 231 229 219 207 203 204 204 206 209 209 206 206 209 212 213 213 214 214 218 224 228 237 240 221 202 203 207 210 217 243 273 286 280 251 242 301 302 289 340 41 37 19 7 9 24 27 22 21 19 4
188 173 182 201 222 229 231 239 247 246 234 198 186 199 207 207 206 209 206 196 189 189 190 189 188 190 194 196 199 204 207 211 216 220 223 223 216 212 209 205 200 198 197 196 198 199 198 199 204 206 206 209 213 218 225 237 245 243 232 216 206 202 208 222 236 237 209 152 134 101 74 72 84 81 68 47 29 23 33 42 37 27 26 23 3
230 136 174 208 239 239 232 239 251 246 209 192 211 216 216 216 218 218 211 202 195 191 190 190 186 187 192 194 196 200 204 208 214 218 218 213 206 208 210 204 195 193 191 188 187 190 191 190 191 193 194 197 204 211 217 224 227 223 216 207 195 181 169 159 145 133 116 109 112 107 95 90 89 83 71 55 46 45 47 47 42 32 30 28 16
232 196 201 221 238 241 238 248 257 235 200 212 226 226 222 216 208 203 200 199 194 186 184 187 186 186 189 191 193 197 201 207 211 215 217 211 205 207 209 204 197 190 186 185 183 181 182 181 180 180 180 180 182 188 194 201 205 200 191 182 166 144 131 125 118 113 107 104 107 107 99 91 81 73 67 58 50 43 39 38 35 32 31 30 29
166 186 205 221 229 233 240 251 253 232 215 222 229 229 225 212 196 194 197 196 189 181 179 180 179 175 176 182 186 185 191 200 203 206 210 209 206 208 209 207 202 194 186 185 185 182 177 175 174 173 172 171 172 172 170 165 157 151 150 146 135 126 124 120 117 118 116 109 104 96 86 77 69 64 59 51 44 36 32 30 30 33 37 36 38
152 154 162 198 222 198 117 142 182 191 199 209 220 224 221 216 213 210 201 192 183 176 173 172 167 161 161 166 166 164 169 179 183 191 200 202 202 204 205 206 204 196 187 182 181 180 178 178 179 176 169 162 153 143 133 124 121 125 127 123 117 117 119 117 117 118 112 103 91 77 68 63 60 56 48 40 37 33 30 30 33 45 53 54 58
128 119 119 130 140 95 89 97 121 148 168 183 200 211 211 209 209 203 194 186 176 166 164 164 159 152 150 148 145 147 149 149 158 175 189 195 197 197 195 192 191 189 184 177 173 173 175 175 174 167 161 151 135 123 113 108 112 117 118 115 112 115 117 114 113 109 98 89 77 68 63 58 53 46 37 31 30 31 33 36 41 52 60 60 63
112 108 107 103 96 92 92 95 105 117 129 145 159 163 157 164 171 176 180 178 165 153 151 153 149 142 137 133 130 133 138 139 144 154 163 174 185 184 169 159 161 167 168 163 160 154 148 154 165 158 148 137 125 117 107 108 118 120 117 114 109 105 101 98 99 97 87 77 69 64 61 54 46 41 35 31 31 31 36 41 42 48 53 50 48
110 105 102 99 95 92 92 92 96 103 110 120 127 122 106 99 105 128 152 152 141 136 137 140 138 132 128 125 121 123 132 139 143 142 137 140 148 146 130 125 135 145 147 148 150 141 134 147 173 155 138 126 113 104 103 116 126 123 116 111 102 93 90 90 91 87 79 72 69 65 59 49 43 42 41 39 36 32 33 36 37 38 37 32 33
113 111 107 104 101 100 99 96 93 96 100 104 106 105 103 99 93 95 104 107 110 117 126 132 132 127 124 124 123 127 132 133 130 127 126 132 139 137 129 132 141 138 129 132 139 136 136 152 169 151 136 119 100 101 111 121 126 122 113 105 97 90 87 87 86 81 76 73 71 66 57 48 47 51 50 47 43 37 34 33 33 33 28 19 17
115 115 113 111 111 111 111 110 106 101 98 99 101 101 102 103 101 100 101 103 104 108 114 121 123 123 127 129 129 130 130 125 118 108 102 116 135 126 146 189 203 165 131 129 131 129 133 154 168 160 142 119 107 111 116 117 116 111 104 99 95 90 87 86 85 81 78 78 75 65 56 53 56 55 51 49 45 40 36 33 32 32 27 19 18
122 120 119 117 115 114 114 115 114 108 100 97 97 97 101 107 107 105 105 108 111 116 123 125 124 127 132 131 129 127 123 117 112 106 103 108 112 113 126 151 174 171 158 145 135 126 126 135 143 140 127 115 111 112 110 105 101 98 95 94 93 92 88 87 87 84 81 78 69 59 55 57 57 54 50 49 46 39 35 33 32 29 23 20 22
128 128 132 130 124 121 120 118 116 113 109 103 94 89 89 96 104 108 111 118 129 139 143 143 146 151 147 138 132 130 126 118 110 108 110 110 112 120 128 134 150 162 158 146 137 130 124 121 122 121 115 109 107 104 101 97 94 91 89 87 85 82 78 77 80 80 78 73 65 60 61 60 55 52 50 47 44 39 33 31 28 24 21 22 24
139 140 146 145 140 135 129 124 121 119 117 112 104 95 89 87 92 97 98 107 129 149 156 157 162 165 157 144 137 132 128 125 118 113 112 110 111 116 118 125 142 146 140 135 132 127 120 112 109 110 108 104 101 100 98 96 92 89 86 80 73 69 68 70 74 77 76 76 72 68 64 59 52 49 47 43 40 36 31 29 29 28 27 26 23
152 154 157 152 149 146 139 133 130 126 123 121 117 110 103 95 90 89 89 92 99 112 138 160 172 177 171 157 149 138 127 126 126 119 110 106 107 110 112 119 129 134 136 134 126 116 112 107 102 102 103 100 98 98 97 95 93 89 84 78 71 69 69 69 71 75 78 80 77 70 63 59 56 52 49 46 41 36 32 32 32 32 30 25 19
156 162 162 155 150 149 145 141 137 133 130 128 127 125 120 111 102 96 92 91 90 90 94 112 143 165 170 164 154 142 131 132 137 130 118 110 109 112 118 122 125 130 137 134 119 108 107 106 101 100 101 98 96 96 95 92 90 88 84 79 75 74 73 69 70 78 84 84 79 74 70 67 64 60 56 50 44 37 33 30 28 26 24 20 16
157 162 162 157 153 151 149 146 144 143 141 138 137 138 134 128 123 117 110 103 100 100 100 104 115 130 139 143 146 143 142 151 153 140 128 121 116 115 119 122 123 130 137 129 115 107 106 105 102 101 101 99 97 96 92 88 86 86 84 81 79 80 80 78 78 83 85 83 78 75 72 68 64 60 53 46 40 34 29 24 20 18 16 13 10
160 164 163 160 158 157 155 152 149 148 149 149 149 148 144 141 140 137 132 127 122 118 118 119 122 130 139 147 157 161 164 169 163 148 137 129 122 119 119 117 115 119 124 119 113 110 108 105 102 101 100 98 97 95 92 90 89 90 89 89 89 90 91 88 84 82 80 76 72 68 63 59 55 49 43 37 32 27 22 17 13 11 9 6 2
155 162 165 164 163 162 161 160 159 158 159 159 159 157 154 150 149 147 145 140 136 133 132 130 133 145 159 168 172 175 180 180 163 151 145 139 133 128 122 114 109 107 110 111 111 111 108 104 102 102 100 99 97 96 94 92 91 94 97 98 98 95 90 85 82 79 75 68 63 58 52 48 43 37 31 27 23 19 15 11 7 5 3 1 357
148 158 167 170 169 168 169 169 169 171 174 177 178 175 167 159 155 153 152 148 144 140 136 136 140 148 160 170 173 177 181 171 154 142 140 148 150 142 127 116 112 110 110 110 110 109 107 106 105 105 104 103 102 100 99 97 97 98 100 100 98 92 85 81 78 75 69 62 56 49 42 37 31 25 23 20 18 16 12 7 6 4 0 358 355
159 162 168 172 173 172 173 172 168 167 170 174 178 181 182 178 174 170 162 155 150 145 141 140 140 137 135 135 133 139 151 149 138 124 124 142 151 146 131 122 119 117 114 113 112 110 109 109 109 108 107 106 104 103 103 102 101 101 99 97 93 88 83 79 73 68 63 57 49 41 34 29 24 20 18 16 15 14 11 6 4 1 358 356 355
175 171 171 173 175 174 172 169 166 162 160 159 161 166 170 171 178 186 180 165 154 150 151 149 141 135 131 124 111 113 136 139 124 113 124 138 142 138 132 128 125 122 118 117 116 114 112 110 111 109 107 106 105 104 103 102 102 101 98 94 90 87 82 76 68 61 55 49 42 34 26 21 16 12 11 13 13 10 7 4 2 358 356 356 355
190 183 179 180 182 181 179 176 171 167 165 163 163 165 165 155 149 165 174 167 158 155 160 160 152 144 137 126 117 126 141 133 117 118 126 131 132 132 131 129 125 123 121 120 120 118 115 113 112 110 108 106 104 102 101 100 100 98 95 90 85 78 72 65 58 52 44 36 29 22 15 12 10 6 7 12 11 4 0 1 359 355 352 350 350
211 201 197 198 198 197 197 196 190 187 188 188 184 188 197 198 175 155 163 167 164 162 166 168 162 154 144 130 129 149 154 134 123 124 127 127 127 129 130 128 126 124 123 122 121 120 118 116 115 113 110 107 102 99 98 97 96 93 89 83 76 68 62 56 47 39 30 23 16 12 10 11 9 3 4 9 5 357 355 355 354 352 351 348 347
221 217 212 210 208 207 205 203 201 198 195 194 191 191 197 199 189 171 170 171 169 167 170 171 163 157 149 134 134 158 159 141 133 131 130 130 130 130 129 129 129 128 126 125 124 123 121 118 117 115 112 107 101 97 95 93 91 87 79 72 69 63 56 47 36 27 19 12 8 7 8 9 6 0 2 3 356 349 350 352 352 352 350 348 347
221 221 217 214 212 209 206 204 203 199 194 193 193 189 186 185 179 169 168 170 171 173 176 172 164 162 166 156 145 150 152 145 139 135 132 131 130 129 128 128 129 128 127 128 128 127 125 122 118 115 113 108 104 100 97 90 83 75 67 62 60 56 48 39 30 22 16 13 13 13 11 10 7 4 4 2 353 348 349 352 353 352 347 345 346
221 220 216 212 209 210 212 213 212 210 209 206 202 202 200 194 180 165 163 168 172 175 175 173 170 174 185 179 157 149 148 147 145 141 136 133 131 129 127 126 125 125 125 126 127 129 129 124 119 114 110 106 103 99 95 87 75 63 54 51 51 51 47 37 29 23 21 21 22 19 14 10 5 2 3 2 354 350 351 352 350 348 345 344 343
223 220 214 211 212 212 215 216 215 219 223 220 216 220 214 193 173 161 160 166 170 172 171 170 170 170 170 167 156 148 144 143 142 140 137 135 133 129 127 125 125 125 125 122 122 125 124 120 118 113 106 101 98 92 86 77 64 52 49 53 58 58 50 40 33 30 30 28 23 16 10 6 5 5 10 6 356 350 351 350 346 345 344 342 341
224 220 214 214 216 216 218 221 222 225 233 234 231 229 212 188 170 158 157 161 165 165 163 160 154 147 144 145 147 145 141 138 137 136 135 134 132 129 129 129 129 128 125 122 123 124 121 118 116 111 103 98 92 86 78 68 59 57 59 62 64 58 48 41 38 36 31 23 16 10 5 4 6 11 11 2 355 350 348 345 342 343 341 339 338
218 215 214 215 217 221 226 229 229 232 237 229 211 197 185 175 165 154 153 159 162 159 155 152 148 145 144 143 143 143 141 139 138 137 135 134 131 129 130 132 132 131 129 126 124 121 117 115 110 105 102 100 93 87 81 74 72 73 68 61 57 51 47 45 40 32 24 15 8 5 2 3 9 18 13 357 350 349 346 343 342 342 339 337 339
214 211 212 216 223 230 232 230 233 242 238 206 184 171 165 164 161 155 155 159 161 158 154 152 151 150 148 146 145 146 145 144 143 141 139 136 132 128 130 134 136 135 132 127 122 116 111 107 102 101 107 108 101 96 94 90 87 81 66 54 51 49 46 43 32 21 14 8 4 4 5 7 13 22 18 360 352 349 346 344 344 344 340 338 339
218 214 211 218 231 237 233 228 232 234 209 178 164 160 161 164 165 165 165 164 161 159 157 155 152 151 150 149 150 150 148 147 146 144 141 137 132 131 135 139 140 139 134 128 123 117 109 105 105 108 113 116 108 104 107 107 96 76 56 50 50 47 42 35 22 13 8 5 5 11 16 16 18 18 9 358 355 350 345 343 342 340 338 336 336
223 219 214 217 231 240 240 234 220 201 182 169 165 169 172 167 162 164 167 164 162 160 159 157 153 151 150 151 151 150 148 147 145 141 138 135 132 133 137 139 141 142 139 132 128 124 119 118 118 118 118 116 110 112 118 112 85 58 47 48 49 43 33 24 15 9 8 11 17 22 22 20 21 18 4 355 353 348 342 340 338 337 336 334 333
220 219 217 221 234 246 248 233 201 182 176 174 174 175 172 167 165 164 162 159 158 157 157 157 155 154 153 153 152 151 150 148 145 142 142 141 139 139 142 143 145 146 144 140 139 136 130 126 124 120 116 111 109 116 117 94 61 47 44 45 42 35 26 19 13 12 15 19 21 19 16 16 20 18 1 350 350 346 339 337 337 336 335 332 330
220 223 225 228 236 240 233 212 189 178 177 180 180 177 171 169 168 164 158 155 156 156 156 156 156 155 155 154 153 152 151 149 147 148 149 147 146 146 146 147 147 145 139 135 137 141 138 133 125 115 111 108 111 115 103 67 46 43 44 40 34 24 15 10 9 13 18 17 13 11 11 12 14 11 355 341 342 341 336 333 334 334 333 331 330
Height
834 836 837 839 840 841 843 844 845 846 848 849 851 852 854 855 856 858 858 859 860 860 861 861 861 862 863 864 864 864 865 865 866 866 867 867 867 867 868 867 867 867 867 867 866 867 866 866 866 866 866 866 866 866 866 866 866 866 866 865 864 864 865 865 865 864 863 863 862 861 861 860 858 857 856 855 854 853 852 851 851 850 849 848 847
832 833 835 837 839 840 841 843 844 845 846 848 849 851 852 854 855 856 857 858 859 859 860 860 861 861 862 863 863 864 864 865 865 866 866 867 867 867 867 866 866 866 866 866 866 866 866 866 866 866 866 866 866 865 865 865 865 865 865 865 864 863 864 864 863 863 862 862 862 861 860 859 858 857 856 855 854 853 851 851 850 849 848 847 846
830 832 833 835 837 839 840 842 843 844 845 846 848 849 850 852 853 854 855 856 857 858 859 859 860 861 861 862 862 863 863 864 864 865 865 866 866 866 866 866 866 866 865 865 865 865 865 865 865 865 866 866 865 865 865 864 864 864 864 864 864 863 863 863 863 863 862 861 861 860 859 859 857 856 856 855 853 852 851 850 849 848 847 846 845
828 830 832 834 835 837 839 840 842 843 844 845 846 847 849 850 851 853 854 855 855 856 857 858 859 860 860 860 861 862 862 862 863 864 864 864 865 865 865 865 865 865 865 865 865 865 865 865 865 865 865 865 865 864 864 864 863 864 864 863 863 863 863 863 862 862 861 861 860 859 859 858 857 856 855 854 853 852 850 849 849 847 846 846 844
826 828 830 832 834 836 837 839 840 842 843 844 844 846 847 848 850 851 852 853 854 855 856 856 857 858 859 859 860 860 861 861 862 862 862 863 863 864 864 864 864 864 864 864 864 865 864 864 864 864 864 864 863 864 863 863 863 863 863 863 862 862 862 862 862 861 861 860 859 859 858 857 856 856 855 854 852 851 850 849 848 847 846 845 844
823 826 829 831 832 834 835 837 838 840 841 842 843 844 845 846 847 849 850 851 852 853 854 855 856 857 857 858 858 859 860 860 861 861 861 862 862 863 863 863 863 863 863 863 864 864 863 863 863 863 863 863 862 862 862 862 862 862 862 862 862 861 861 861 861 861 860 860 859 858 857 857 856 855 854 853 852 851 850 849 848 847 845 844 843
820 823 826 828 830 831 832 834 835 837 839 840 842 842 843 844 845 846 848 849 850 851 852 853 854 855 856 856 857 858 858 859 860 860 861 861 861 861 861 862 862 862 862 862 862 862 862 862 862 862 861 861 861 861 861 861 861 861 861 861 861 860 860 860 860 860 860 859 859 858 857 856 855 854 853 853 852 851 849 848 846 845 844 843 842
817 819 822 824 826 827 829 831 833 835 837 838 840 840 841 842 843 844 846 847 848 849 850 851 852 853 854 855 855 856 857 858 858 859 859 860 860 860 860 861 861 861 861 861 861 861 861 860 860 860 860 859 859 859 859 859 859 859 859 859 859 859 859 859 859 859 859 858 858 857 856 855 854 853 852 851 850 850 849 848 846 844 843 842 842
814 816 818 820 821 823 825 828 830 833 835 836 838 839 839 840 841 843 844 844 846 847 847 848 849 851 852 853 854 855 855 856 856 857 858 858 859 859 859 860 860 860 860 860 859 859 859 859 859 859 858 858 858 857 857 858 858 858 858 858 858 858 858 858 858 858 858 857 857 856 855 854 853 852 851 850 850 849 848 847 846 844 843 841 841
811 813 814 815 817 820 823 826 828 830 832 833 835 836 837 838 839 841 841 842 844 845 845 846 847 848 849 851 852 853 853 854 855 855 856 857 858 858 858 859 859 859 859 859 858 858 857 857 857 857 857 856 856 856 856 856 856 857 857 857 857 857 857 857 857 857 857 856 856 855 854 853 852 852 851 850 849 849 848 847 845 843 842 839 839
808 810 811 813 815 818 821 824 826 827 828 830 831 833 834 836 837 838 838 840 841 842 843 844 845 846 847 849 850 851 851 852 853 854 854 855 856 857 857 858 858 859 859 858 857 856 856 856 855 855 855 855 855 855 855 855 855 855 856 856 856 856 856 856 855 855 855 855 854 854 853 852 851 851 850 849 848 848 847 846 845 843 842 839 838
805 807 809 811 814 816 819 821 823 824 825 827 829 830 832 833 834 835 836 837 839 840 841 842 843 844 845 846 848 848 849 850 850 851 852 853 854 855 856 856 857 857 858 857 856 856 855 855 854 854 854 854 854 854 854 854 854 854 855 855 855 855 854 854 854 854 853 853 853 853 852 851 850 849 849 848 847 847 846 846 845 843 842 841 839
803 806 808 810 813 814 817 819 820 822 823 825 827 828 829 831 832 833 834 835 837 838 839 840 841 842 843 844 845 846 847 848 849 849 850 851 852 853 853 854 854 855 856 856 855 854 854 853 853 853 854 853 853 853 853 853 853 853 853 854 854 853 853 853 853 852 852 852 852 851 851 850 849 849 848 847 847 846 845 844 844 843 841 840 839
803 805 807 810 812 814 816 817 818 819 821 823 825 826 827 829 830 831 832 833 835 835 837 838 839 840 841 842 843 844 845 846 847 848 848 849 850 851 851 852 853 853 853 854 854 853 853 853 852 853 853 853 852 853 852 853 853 853 853 853 853 852 852 852 852 851 851 851 851 851 850 850 849 848 848 847 846 845 844 844 843 842 841 840 839
805 805 806 809 811 813 814 815 816 817 818 820 823 824 826 827 828 829 830 831 832 833 835 836 837 838 839 840 841 842 843 844 845 846 847 847 848 849 849 851 852 851 851 852 852 852 852 852 852 852 852 852 852 852 852 852 852 852 853 853 852 852 851 851 851 851 851 851 850 850 850 849 848 848 847 847 846 845 844 843 842 841 840 839 838
806 806 806 808 811 812 814 815 815 816 817 819 821 823 826 827 828 829 829 830 831 831 833 834 835 836 837 837 838 839 841 842 843 844 845 845 846 847 847 849 849 849 849 849 850 850 850 850 851 851 851 851 851 851 851 851 851 852 852 852 852 851 851 851 851 851 851 850 850 849 849 848 848 848 847 847 846 845 844 843 842 841 839 837 836
804 805 806 808 810 812 814 815 816 816 817 818 820 822 825 826 827 829 829 829 829 830 831 832 833 834 835 836 836 837 838 839 840 842 843 843 845 845 845 846 846 847 847 847 848 848 849 849 849 849 849 850 850 850 850 851 851 851 851 851 851 851 851 850 850 850 849 849 849 849 848 848 848 847 847 846 845 844 843 842 842 840 839 838 837
806 806 806 808 809 811 812 814 815 816 818 819 820 821 823 825 826 828 828 829 829 829 829 830 832 833 834 834 835 836 837 837 838 839 840 842 843 843 843 843 844 845 845 845 846 847 847 847 847 847 848 849 849 849 850 850 850 850 850 850 850 850 849 849 849 849 848 848 848 848 848 848 848 847 847 846 845 844 843 842 842 841 840 840 839
809 809 809 809 810 811 812 812 813 814 816 819 819 819 819 821 823 825 826 827 828 828 828 828 830 831 832 833 834 835 835 835 836 837 838 840 841 841 841 841 841 842 843 843 844 845 846 846 846 846 847 847 848 848 848 848 848 848 848 848 848 849 848 848 848 848 847 847 847 847 848 848 847 847 847 846 845 845 844 843 842 841 841 841 840
808 809 809 808 810 811 811 812 812 812 814 816 816 815 816 818 820 822 824 825 825 825 826 827 828 829 831 832 833 833 833 834 834 835 836 838 839 839 839 839 839 840 840 841 842 844 845 845 846 846 846 846 846 847 847 847 847 847 847 847 847 848 848 848 848 847 847 847 846 846 847 847 847 846 846 846 846 845 845 844 843 842 841 841 840
807 808 807 807 810 811 810 811 812 812 813 813 812 813 814 816 817 819 821 821 821 822 824 824 826 827 829 830 831 831 832 832 833 834 835 836 836 837 837 836 836 837 838 840 840 842 843 844 845 845 845 845 845 845 846 846 847 847 847 847 847 847 848 848 847 847 847 847 846 846 846 846 846 846 846 846 846 846 845 844 843 842 841 840 840
808 808 807 807 808 809 809 810 811 811 811 810 810 811 812 814 815 816 817 818 818 820 821 822 824 826 827 829 829 830 831 832 832 833 833 833 833 834 834 835 835 835 836 837 839 840 841 843 843 844 844 845 845 845 846 846 846 846 847 847 847 848 848 848 848 847 847 847 847 846 846 846 846 846 846 846 846 846 846 845 844 843 842 841 840
808 807 806 807 807 808 809 809 809 810 810 809 810 811 812 813 813 813 814 815 816 818 819 820 822 824 826 828 828 829 830 831 832 833 832 832 832 832 832 833 833 833 834 836 838 839 840 841 842 843 844 845 845 845 846 846 846 847 847 848 848 849 848 848 848 848 848 847 847 847 847 847 847 846 846 846 846 846 846 845 845 844 843 842 841
808 807 807 807 808 808 809 810 810 811 811 811 812 812 813 813 813 812 813 813 814 816 819 821 822 823 825 827 827 829 830 831 832 833 832 832 832 832 831 831 831 832 833 835 837 838 840 842 844 844 843 844 845 845 845 846 846 847 848 848 849 849 849 849 849 848 848 848 848 848 848 848 847 847 847 846 846 846 846 846 845 844 844 843 842
808 808 807 807 807 809 811 812 812 813 813 813 813 813 814 814 815 816 815 816 817 819 821 824 824 825 826 827 828 829 830 831 832 832 833 833 833 833 833 832 832 832 833 834 836 837 840 844 847 845 844 844 845 844 844 845 846 847 848 849 849 849 849 850 850 849 849 849 849 849 849 849 848 848 847 847 846 845 845 845 845 844 843 843 841
809 808 807 807 809 811 813 814 816 816 815 815 815 815 816 816 817 819 820 821 824 825 825 827 827 827 828 829 830 831 831 832 832 833 833 834 834 834 835 835 834 834 834 835 837 838 840 843 846 846 844 844 844 843 844 845 845 847 848 848 849 850 850 850 851 850 850 850 850 850 850 850 849 849 848 847 846 845 845 845 844 843 843 842 841
810 810 809 810 812 814 814 816 817 818 818 818 817 817 817 817 818 820 822 823 826 828 830 830 830 831 831 830 830 832 832 833 834 834 834 835 835 835 835 835 836 836 837 837 838 840 841 843 845 845 844 844 844 844 845 845 846 847 848 849 850 851 851 851 852 851 852 852 852 851 851 850 849 849 848 847 846 845 845 844 844 844 843 842 841
813 813 813 814 815 816 816 817 818 818 820 821 820 819 819 819 819 820 822 824 825 828 830 831 831 833 833 832 831 832 834 835 835 835 836 836 836 835 835 836 836 837 838 839 839 841 842 842 843 844 845 844 845 846 846 847 848 848 849 850 851 852 852 852 852 852 852 853 852 852 852 851 850 849 848 847 847 846 846 845 845 844 843 842 841
815 815 816 816 817 818 818 818 819 819 820 822 822 821 821 821 821 822 823 824 826 828 829 830 831 833 834 833 833 834 835 836 836 837 837 837 837 837 837 838 838 838 838 839 839 841 842 842 842 844 845 845 846 847 848 848 849 850 850 851 852 852 852 852 852 853 853 853 852 852 852 851 850 849 849 848 848 848 847 846 846 845 844 843 842
818 818 818 818 819 820 820 820 821 821 821 822 823 823 823 824 824 824 824 825 826 828 829 830 831 832 833 834 834 835 836 837 837 838 838 838 839 839 839 839 838 838 839 839 840 840 841 842 843 844 845 846 847 848 849 849 850 851 851 852 852 853 853 853 853 853 853 852 852 852 852 851 851 850 850 849 849 849 848 848 847 846 845 844 843
820 820 820 821 821 821 822 823 823 823 823 823 823 823 825 826 826 826 826 827 827 828 829 831 832 833 833 834 834 835 837 838 839 839 840 840 841 841 841 840 839 839 840 839 840 841 842 843 844 846 846 847 848 849 850 850 851 852 853 853 853 854 854 854 854 853 853 852 852 853 852 852 851 851 851 851 850 850 849 848 847 847 846 845 844
821 822 822 823 823 823 824 824 825 825 825 825 824 824 825 826 828 829 829 829 829 829 830 831 833 834 835 836 836 837 838 839 840 841 841 842 842 842 842 841 840 841 840 840 841 843 843 844 846 847 847 848 849 850 851 852 852 853 853 854 854 855 855 855 854 853 853 853 853 853 853 852 852 852 851 851 851 850 849 848 847 846 845 845 844
822 823 823 824 824 825 825 825 826 826 826 827 827 826 826 827 828 830 831 831 831 831 832 833 834 836 837 838 838 839 839 840 841 841 842 843 843 843 842 842 842 842 842 841 842 845 846 846 847 848 848 849 850 851 852 853 853 854 854 855 855 855 856 855 855 854 854 854 854 854 853 853 853 852 852 852 851 850 849 848 848 847 846 845 844
824 824 824 825 825 826 826 826 827 827 827 828 828 828 828 828 829 830 831 832 833 833 834 834 835 836 838 839 839 840 840 840 841 842 842 843 843 843 843 843 843 844 843 843 844 846 847 848 848 849 850 850 851 852 853 853 854 854 855 855 856 856 856 855 855 855 855 855 855 854 854 854 854 853 853 852 851 851 850 849 848 847 846 845 844
826 826 826 826 826 827 827 827 827 828 828 828 828 828 828 829 829 830 832 833 834 835 835 835 835 837 838 839 839 839 840 840 841 842 843 843 844 844 844 844 844 845 845 846 846 848 848 849 850 850 851 852 853 853 854 854 855 855 856 856 856 856 856 855 855 856 855 855 855 855 855 854 854 853 853 852 851 850 850 849 848 847 846 845 843
827 827 827 827 828 828 828 828 828 828 828 828 829 829 829 829 829 830 832 834 835 836 836 836 836 837 838 840 840 839 840 841 841 842 842 842 843 844 844 845 845 846 847 848 849 849 850 851 851 852 853 853 854 854 855 855 856 856 856 856 856 856 856 856 856 856 856 856 856 856 855 855 854 853 853 852 852 851 850 849 848 847 846 845 844
828 827 827 828 828 829 829 829 829 829 829 829 830 830 830 830 830 830 831 834 836 837 838 838 837 838 839 840 840 840 840 841 842 842 842 842 843 844 844 845 846 847 849 849 850 851 852 853 853 854 854 854 855 855 855 856 856 857 857 857 856 856 857 857 857 857 856 856 856 856 855 855 855 854 853 853 852 852 851 850 849 848 847 846 845
829 828 828 828 828 829 829 830 830 830 830 829 830 830 831 832 832 831 832 834 836 838 839 839 839 839 840 841 841 841 842 842 843 843 843 843 843 844 845 846 847 848 849 850 851 852 853 854 854 855 855 856 856 856 857 857 857 857 857 857 857 857 858 858 857 857 857 857 856 856 856 855 855 854 854 853 853 852 851 850 849 848 847 846 844
829 829 829 829 829 829 830 830 830 831 831 831 831 831 831 832 832 832 833 834 837 838 839 840 840 840 841 841 842 842 843 843 844 844 844 845 845 845 846 847 848 849 850 851 852 852 853 854 855 856 856 857 857 857 857 858 858 858 858 858 858 858 858 858 858 857 857 857 857 857 857 856 856 855 854 854 853 852 851 850 849 848 847 846 845
829 829 829 830 830 830 830 830 831 831 831 831 831 831 831 831 831 832 833 834 836 838 839 841 841 841 841 842 842 842 843 844 845 846 846 846 846 847 847 847 848 849 851 852 852 853 854 855 855 856 857 857 857 858 858 858 858 858 858 858 858 858 858 858 858 858 858 858 857 857 857 857 856 855 854 854 853 852 851 850 850 849 848 846 845
828 828 829 829 830 830 830 830 831 831 831 831 831 830 831 831 831 831 832 833 834 836 838 840 842 842 843 843 843 843 844 845 846 847 847 847 848 848 848 848 849 849 850 852 853 853 854 855 855 856 856 857 857 858 858 858 859 859 859 859 859 859 859 859 859 858 858 858 858 857 857 856 855 854 854 853 853 852 851 850 849 848 847 846 845
826 827 828 828 829 830 830 830 831 831 831 831 831 831 831 831 831 831 832 832 833 835 837 839 841 842 843 844 844 844 844 845 847 848 848 849 849 848 848 849 849 850 851 852 853 853 854 854 855 856 856 857 858 858 858 859 859 859 859 859 859 859 859 859 859 859 858 858 857 857 856 855 855 854 854 853 852 852 851 850 849 848 847 846 845
825 826 826 827 828 828 829 829 830 830 830 831 831 831 831 831 831 831 832 833 834 835 837 839 840 842 844 845 845 845 845 845 846 847 848 849 850 849 849 849 850 850 852 853 853 854 854 855 855 856 856 857 858 858 858 859 859 860 860 860 860 860 859 859 859 859 858 858 857 857 856 856 855 854 854 853 852 852 851 850 849 848 847 846 845
824 825 826 826 827 827 828 828 829 829 829 830 830 830 830 830 830 830 831 833 835 836 837 839 840 841 843 844 845 845 845 846 846 847 848 849 850 849 850 850 851 852 853 853 854 854 855 855 856 856 857 857 858 858 859 859 860 860 860 860 860 860 860 860 860 859 859 859 858 857 857 856 855 854 853 853 852 851 851 850 849 848 847 846 845
824 824 825 826 826 827 827 827 828 828 828 828 828 828 829 829 829 830 830 832 834 836 837 839 840 841 842 843 844 845 847 847 848 848 849 849 850 851 852 853 853 853 854 854 854 855 855 856 856 857 857 858 858 858 859 859 860 860 861 861 861 861 861 861 860 860 860 859 858 857 856 855 854 853 852 852 852 851 850 850 849 848 847 846 845
823 824 824 825 825 826 826 827 827 827 827 827 827 827 827 828 829 829 830 831 833 835 837 838 839 841 841 842 844 845 847 848 849 850 850 851 851 852 853 854 854 854 855 855 855 855 856 856 857 857 857 858 859 859 859 860 860 861 861 862 862 862 861 861 861 860 860 859 858 857 855 854 853 852 852 852 851 851 850 850 849 848 847 845 844
822 822 823 824 824 824 825 825 826 827 827 827 827 827 827 828 829 830 830 831 832 834 836 837 839 840 841 842 844 845 846 848 849 850 851 852 852 853 854 854 855 855 855 856 856 856 856 857 857 857 858 859 859 860 860 860 861 862 862 862 862 862 862 861 861 860 859 858 857 856 855 854 853 852 852 852 851 851 850 849 848 847 846 845 843
821 821 822 822 823 823 824 824 825 826 826 826 826 827 828 829 829 830 831 831 832 834 836 837 839 840 840 841 843 844 846 847 849 850 851 852 853 854 854 855 855 856 856 856 856 857 857 857 858 858 858 859 859 860 861 861 861 862 862 862 862 862 862 861 861 860 859 857 856 855 854 853 852 852 851 851 851 850 849 848 848 847 846 844 843
819 820 821 822 822 822 823 824 824 825 825 825 826 827 828 829 829 830 831 831 832 833 835 837 838 839 840 842 843 844 845 847 848 850 851 852 853 854 855 855 855 856 856 856 857 857 857 858 858 859 859 860 860 860 861 862 862 862 862 862 862 862 862 861 860 859 858 857 855 854 853 852 852 851 851 851 850 850 849 848 847 846 845 844 843
818 818 819 820 821 821 822 823 824 824 824 825 825 826 827 828 829 830 831 831 831 833 835 836 838 839 840 841 843 844 845 846 848 849 851 852 853 854 854 855 856 856 856 857 857 857 858 858 859 859 860 860 861 861 862 862 862 862 862 862 862 862 861 860 860 859 857 856 855 854 853 852 851 851 851 850 850 849 848 848 847 846 845 844 842
816 817 817 819 819 820 820 821 822 823 823 824 824 825 825 827 829 830 830 830 831 833 835 836 838 840 841 841 843 844 845 846 847 849 850 851 852 853 854 855 856 856 857 857 857 858 858 859 859 860 860 861 861 862 862 862 862 862 862 862 862 861 860 860 859 858 857 856 855 854 853 852 851 851 850 850 850 849 848 847 846 845 844 843 841